Weather History for EHKD - December, 2013

Change the Weather History Date:

Friday, December 20, 2013

  Actual Average Record
Temperature  
Mean Temperature 40 °F -  
Max Temperature 46 °F 41 °F - ()
Min Temperature 34 °F 34 °F - ()
Degree Days  
Heating Degree Days 25    
Moisture  
Dew Point 40 °F    
Average Humidity 81    
Maximum Humidity 93    
Minimum Humidity 64    
Precipitation  
Precipitation 0.00 in 0.09 in - ()
Sea Level Pressure  
Sea Level Pressure 30.04 in    
Wind  
Wind Speed 17 mph ()    
Max Wind Speed 29 mph    
Max Gust Speed 38 mph    
Visibility 7.2 miles    
Events Rain    
T = Trace of Precipitation, MM = Missing Value Source: Averaged Metar Reports

Daily Weather History Graph

Daily Weather History Graph

Search for Another Location

Airport or City:

Trip Planner

Search our weather history database for the weather conditions in past years. The results will help you decide how hot, cold, wet, or windy it might be!

Date:

Astronomy

Dec. 20, 2013 Rise Set
Actual Time 8:51 AM CET 4:25 PM CET
Civil Twilight 8:08 AM CET 5:08 PM CET
Nautical Twilight 7:24 AM CET 5:53 PM CET
Astronomical Twilight 6:41 AM CET 6:35 PM CET
Moon 7:55 PM CET (12/20) 10:15 AM CET (12/20)
Length of Visible Light 8h 59m
Length of Day
7h 34m
Waning Gibbous, 92% of the Moon is Illuminated
Dec 20
Waning Gibbous
Dec 25
Last Quarter
Jan 1
New
Jan 8
First Quarter
Jan 16
Full

Hourly Weather History & Observations

Time (CET) Temp. Windchill Dew Point Humidity Pressure Visibility Wind Dir Wind Speed Gust Speed Precip Events Conditions
12:00 AM 39 °F - 37 °F 91% 29.82 in 9 mi South 11.2 mph - -   Overcast
12:25 AM 39.2 °F 32.5 °F 37.4 °F 93% 29.80 in 6.2 mi South 10.4 mph - N/A   Overcast
12:55 AM 39.2 °F 31.6 °F 37.4 °F 93% 29.83 in 6.2 mi South 12.7 mph - N/A   Overcast
1:00 AM 40 °F - 38 °F 89% 29.83 in 10 mi South 13.4 mph - -   Partly Cloudy
1:25 AM 41.0 °F 33.5 °F 39.2 °F 93% 29.83 in 6.2 mi South 13.8 mph - N/A   Overcast
1:55 AM 41.0 °F 33.1 °F 39.2 °F 93% 29.83 in 6.2 mi South 15.0 mph - N/A   Mostly Cloudy
2:00 AM 42 °F - 38 °F 83% 29.84 in 12 mi South 15.7 mph - -   Overcast
2:25 AM 41.0 °F 33.1 °F 39.2 °F 93% 29.83 in 6.2 mi South 15.0 mph - N/A   Overcast
2:55 AM 41.0 °F 32.5 °F 39.2 °F 93% 29.83 in 6.2 mi South 17.3 mph - N/A   Mostly Cloudy
3:00 AM 41 °F - 39 °F 89% 29.86 in 10 mi South 15.7 mph - -   Partly Cloudy
3:04 AM 41.0 °F 32.8 °F 39.2 °F 93% 29.83 in 6.2 mi South 16.1 mph - N/A   Mostly Cloudy
3:08 AM 41.0 °F 32.8 °F 39.2 °F 93% 29.86 in 6.2 mi South 16.1 mph - N/A   Drizzle
3:18 AM 41.0 °F 32.2 °F 39.2 °F 93% 29.86 in 3.7 mi SSW 18.4 mph - N/A   Heavy Drizzle
3:25 AM 42.8 °F 34.5 °F 41.0 °F 93% 29.86 in 6.2 mi SSW 18.4 mph - N/A   Light Drizzle
3:33 AM 44.6 °F 36.9 °F 41.0 °F 87% 29.86 in 6.2 mi SSW 18.4 mph - N/A   Mostly Cloudy
3:37 AM 44.6 °F 36.9 °F 41.0 °F 87% 29.86 in 6.2 mi SSW 18.4 mph - N/A Rain Light Rain
3:55 AM 44.6 °F 36.4 °F 39.2 °F 81% 29.86 in 6.2 mi SSW 20.7 mph - N/A   Light Drizzle
4:00 AM 44 °F - 40 °F 81% 29.88 in 9 mi SW 20.1 mph - - Rain Light Drizzle
4:25 AM 44.6 °F 36.9 °F 39.2 °F 81% 29.86 in 6.2 mi SW 18.4 mph - N/A   Mostly Cloudy
4:32 AM 44.6 °F 37.2 °F 39.2 °F 81% 29.89 in 6.2 mi SW 17.3 mph - N/A   Mostly Cloudy
4:55 AM 44.6 °F 36.9 °F 39.2 °F 81% 29.89 in 6.2 mi SW 18.4 mph - N/A   Overcast
5:00 AM 44 °F - 40 °F 80% 29.90 in 14 mi SW 17.9 mph - - Rain Drizzle
5:05 AM 44.6 °F 37.2 °F 39.2 °F 81% 29.89 in 6.2 mi SW 17.3 mph - N/A   Mostly Cloudy
5:15 AM 44.6 °F 37.2 °F 41.0 °F 87% 29.89 in 6.2 mi SW 17.3 mph - N/A   Mostly Cloudy
5:19 AM 44.6 °F 37.2 °F 41.0 °F 87% 29.89 in 6.2 mi SW 17.3 mph - N/A   Light Drizzle
5:25 AM 44.6 °F 37.2 °F 41.0 °F 87% 29.89 in 6.2 mi SW 17.3 mph - N/A   Mostly Cloudy
5:27 AM 44.6 °F 37.2 °F 41.0 °F 87% 29.89 in 6.2 mi SW 17.3 mph - N/A   Mostly Cloudy
5:41 AM 44.6 °F 37.2 °F 41.0 °F 87% 29.92 in 6.2 mi SW 17.3 mph - N/A   Mostly Cloudy
5:45 AM 44.6 °F 37.4 °F 39.2 °F 81% 29.92 in 6.2 mi WSW 16.1 mph - N/A   Scattered Clouds
5:55 AM 44.6 °F 37.8 °F 37.4 °F 76% 29.92 in 6.2 mi WSW 15.0 mph - N/A   Scattered Clouds
6:00 AM 44 °F - 38 °F 71% 29.93 in 25 mi WSW 17.9 mph - -   Unknown Precipitation
6:25 AM 44.6 °F 37.4 °F 37.4 °F 76% 29.92 in 6.2 mi WSW 16.1 mph - N/A   Overcast
6:55 AM 42.8 °F 35.8 °F 37.4 °F 81% 29.95 in 6.2 mi WSW 13.8 mph - N/A   Unknown
7:00 AM 44 °F - 37 °F 67% 29.96 in 19 mi WSW 15.7 mph - -   Partly Cloudy
7:25 AM 42.8 °F 35.4 °F 37.4 °F 81% 29.95 in 6.2 mi WSW 15.0 mph - N/A   Unknown
7:55 AM 42.8 °F 35.1 °F 37.4 °F 81% 29.98 in 6.2 mi WSW 16.1 mph - N/A   Unknown
8:00 AM 44 °F - 37 °F 69% 29.99 in 17 mi WSW 17.9 mph - -   Scattered Clouds
8:18 AM 44.6 °F 36.6 °F 37.4 °F 76% 29.98 in 6.2 mi WSW 19.6 mph - N/A   Scattered Clouds
8:24 AM 44.6 °F 36.4 °F 37.4 °F 76% 29.98 in 6.2 mi WSW 20.7 mph - N/A   Partly Cloudy
8:25 AM 44.6 °F 36.4 °F 37.4 °F 76% 29.98 in 6.2 mi WSW 20.7 mph - N/A   Scattered Clouds
8:27 AM 44.6 °F 36.4 °F 37.4 °F 76% 29.98 in 6.2 mi WSW 20.7 mph - N/A   Partly Cloudy
8:55 AM 44.6 °F 36.9 °F 37.4 °F 76% 30.01 in 6.2 mi WSW 18.4 mph - N/A   Unknown
9:00 AM 44 °F - 37 °F 68% 30.01 in 16 mi WSW 17.9 mph - -  
9:25 AM 44.6 °F 36.6 °F 35.6 °F 71% 30.01 in 6.2 mi WSW 19.6 mph - N/A   Unknown
9:55 AM 44.6 °F 36.9 °F 37.4 °F 76% 30.04 in 6.2 mi WSW 18.4 mph - N/A   Unknown
10:00 AM 45 °F - 37 °F 66% 30.04 in 16 mi WSW 17.9 mph - -   Scattered Clouds
10:25 AM 44.6 °F 36.4 °F 37.4 °F 76% 30.04 in 6.2 mi WSW 20.7 mph - N/A   Scattered Clouds
10:27 AM 44.6 °F 36.4 °F 37.4 °F 76% 30.04 in 6.2 mi WSW 20.7 mph - N/A   Scattered Clouds
10:42 AM 44.6 °F 36.6 °F 39.2 °F 81% 30.04 in 6.2 mi WSW 19.6 mph - N/A   Scattered Clouds
10:48 AM 44.6 °F 36.6 °F 37.4 °F 76% 30.06 in 6.2 mi WSW 19.6 mph - N/A   Partly Cloudy
10:55 AM 44.6 °F 36.4 °F 37.4 °F 76% 30.06 in 6.2 mi WSW 20.7 mph - N/A   Partly Cloudy
11:00 AM 46 °F - 38 °F 64% 30.08 in 14 mi WSW 20.1 mph - -   Scattered Clouds
11:05 AM 46.4 °F 38.7 °F 37.4 °F 71% 30.06 in 6.2 mi WSW 20.7 mph - N/A   Scattered Clouds
11:14 AM 44.6 °F 36.1 °F 37.4 °F 76% 30.06 in 6.2 mi WSW 21.9 mph - N/A   Mostly Cloudy
11:18 AM 46.4 °F 38.3 °F 39.2 °F 76% 30.06 in 6.2 mi WSW 23.0 mph - N/A   Scattered Clouds
11:25 AM 46.4 °F 38.5 °F 39.2 °F 76% 30.06 in 6.2 mi WSW 21.9 mph - N/A   Scattered Clouds
11:29 AM 46.4 °F 39.0 °F 37.4 °F 71% 30.06 in 6.2 mi WSW 19.6 mph - N/A   Partly Cloudy
11:35 AM 46.4 °F 39.0 °F 39.2 °F 76% 30.06 in 6.2 mi WSW 19.6 mph - N/A   Scattered Clouds
11:55 AM 44.6 °F 36.1 °F 37.4 °F 76% 30.06 in 6.2 mi West 21.9 mph - N/A   Scattered Clouds
11:57 AM 46.4 °F 38.5 °F 37.4 °F 71% 30.09 in 6.2 mi West 21.9 mph - N/A   Scattered Clouds
12:00 PM 46 °F - 38 °F 64% 30.09 in 12 mi West 22.4 mph - -   Scattered Clouds
12:01 PM 46.4 °F 38.5 °F 37.4 °F 71% 30.09 in 6.2 mi WSW 21.9 mph - N/A   Partly Cloudy
12:25 PM 46.4 °F 38.3 °F 37.4 °F 71% 30.09 in 6.2 mi WSW 23.0 mph - N/A   Partly Cloudy
12:55 PM 46.4 °F 38.5 °F 39.2 °F 76% 30.09 in 6.2 mi WSW 21.9 mph - N/A   Partly Cloudy
1:00 PM 46 °F - 39 °F 69% 30.11 in 12 mi WSW 20.1 mph - -   Partly Cloudy
1:25 PM 46.4 °F 38.7 °F 39.2 °F 76% 30.09 in 6.2 mi WSW 20.7 mph - N/A   Partly Cloudy
1:28 PM 46.4 °F 38.7 °F 39.2 °F 76% 30.09 in 6.2 mi WSW 20.7 mph - N/A   Partly Cloudy
1:55 PM 46.4 °F 38.5 °F 39.2 °F 76% 30.12 in 6.2 mi WSW 21.9 mph - N/A   Scattered Clouds
1:57 PM 46.4 °F 38.5 °F 39.2 °F 76% 30.12 in 6.2 mi WSW 21.9 mph - N/A   Scattered Clouds
2:00 PM 46 °F - 39 °F 70% 30.14 in 9 mi WSW 22.4 mph - -   Partly Cloudy
2:04 PM 46.4 °F 38.7 °F 39.2 °F 76% 30.12 in 6.2 mi WSW 20.7 mph - N/A   Partly Cloudy
2:25 PM 46.4 °F 38.5 °F 39.2 °F 76% 30.12 in 6.2 mi WSW 21.9 mph - N/A   Partly Cloudy
2:55 PM 46.4 °F 38.7 °F 39.2 °F 76% 30.12 in 6.2 mi WSW 20.7 mph - N/A   Partly Cloudy
3:00 PM 46 °F - 39 °F 70% 30.16 in 11 mi WSW 20.1 mph - -   Scattered Clouds
3:25 PM 46.4 °F 39.0 °F 41.0 °F 81% 30.15 in 6.2 mi WSW 19.6 mph - N/A   Scattered Clouds
3:26 PM 46.4 °F 39.2 °F 41.0 °F 81% 30.15 in 6.2 mi WSW 18.4 mph - N/A   Partly Cloudy
3:55 PM 46.4 °F 39.2 °F 39.2 °F 76% 30.15 in 6.2 mi WSW 18.4 mph - N/A   Unknown
4:00 PM 46 °F - 40 °F 72% 30.17 in 9 mi SW 20.1 mph - -  
4:25 PM 44.6 °F 36.9 °F 41.0 °F 87% 30.15 in 6.2 mi SW 18.4 mph - N/A   Unknown
4:42 PM 46.4 °F 39.0 °F 41.0 °F 81% 30.18 in 6.2 mi SW 19.6 mph - N/A   Scattered Clouds
4:55 PM 46.4 °F 39.2 °F 39.2 °F 76% 30.18 in 6.2 mi SW 18.4 mph - N/A   Partly Cloudy
5:00 PM 46 °F - 40 °F 72% 30.19 in 9 mi SW 17.9 mph - -  
5:25 PM 46.4 °F 39.0 °F 39.2 °F 76% 30.18 in 6.2 mi SW 19.6 mph - N/A   Unknown
5:55 PM 46.4 °F 39.2 °F 41.0 °F 81% 30.18 in 6.2 mi SW 18.4 mph - N/A   Unknown
6:00 PM 46 °F - 41 °F 76% 30.19 in 8 mi SW 17.9 mph - -  
6:25 PM 46.4 °F 39.0 °F 41.0 °F 81% 30.18 in 6.2 mi SW 19.6 mph - N/A   Unknown
6:55 PM 46.4 °F 39.2 °F 41.0 °F 81% 30.18 in 6.2 mi SW 18.4 mph - N/A   Partly Cloudy
7:00 PM 46 °F - 41 °F 77% 30.18 in 7 mi SW 17.9 mph - -   Partly Cloudy
7:25 PM 46.4 °F 38.7 °F 41.0 °F 81% 30.15 in 6.2 mi SW 20.7 mph - N/A   Unknown
7:55 PM 46.4 °F 39.0 °F 42.8 °F 87% 30.18 in 6.2 mi SSW 19.6 mph - N/A   Partly Cloudy
8:00 PM 46 °F - 43 °F 85% 30.18 in 6 mi SSW 20.1 mph - -   Scattered Clouds
8:14 PM 46.4 °F 38.3 °F 42.8 °F 87% 30.18 in 6.2 mi SSW 23.0 mph - N/A   Scattered Clouds
8:18 PM 46.4 °F 38.1 °F 42.8 °F 87% 30.18 in 6.2 mi SSW 24.2 mph - N/A   Mostly Cloudy
8:25 PM 46.4 °F 37.9 °F 42.8 °F 87% 30.18 in 6.2 mi SSW 25.3 mph - N/A   Mostly Cloudy
8:37 PM 44.6 °F 35.5 °F 42.8 °F 93% 30.15 in 6.2 mi SSW 25.3 mph - N/A   Scattered Clouds
8:41 PM 44.6 °F 35.7 °F 42.8 °F 93% 30.15 in 6.2 mi SSW 24.2 mph - N/A   Partly Cloudy
8:46 PM 46.4 °F 38.1 °F 42.8 °F 87% 30.15 in 6.2 mi SSW 24.2 mph - N/A   Scattered Clouds
8:55 PM 44.6 °F 35.7 °F 42.8 °F 93% 30.15 in 6.2 mi SSW 24.2 mph - N/A   Mostly Cloudy
9:00 PM 46 °F - 43 °F 86% 30.18 in 7 mi SSW 24.6 mph - -   Partly Cloudy
9:25 PM 46.4 °F 37.9 °F 42.8 °F 87% 30.15 in 6.2 mi SSW 25.3 mph - N/A   Overcast
9:55 PM 46.4 °F 37.7 °F 42.8 °F 87% 30.15 in 6.2 mi SSW 26.5 mph - N/A   Mostly Cloudy
10:00 PM 46 °F - 42 °F 81% 30.17 in 7 mi SSW 26.8 mph - -   Mostly Cloudy
10:16 PM 46.4 °F 37.5 °F 41.0 °F 81% 30.15 in 6.2 mi SSW 27.6 mph - N/A   Scattered Clouds
10:25 PM 46.4 °F 37.5 °F 42.8 °F 87% 30.15 in 6.2 mi SSW 27.6 mph - N/A   Scattered Clouds
10:27 PM 46.4 °F 37.7 °F 42.8 °F 87% 30.15 in 6.2 mi SSW 26.5 mph 38.0 mph N/A   Mostly Cloudy
10:33 PM 46.4 °F 37.9 °F 42.8 °F 87% 30.15 in 6.2 mi SSW 25.3 mph - N/A   Mostly Cloudy
10:37 PM 46.4 °F 37.7 °F 42.8 °F 87% 30.15 in 6.2 mi SSW 26.5 mph - N/A   Mostly Cloudy
10:55 PM 46.4 °F 37.5 °F 41.0 °F 81% 30.15 in 6.2 mi SSW 27.6 mph - N/A   Overcast
10:57 PM 46.4 °F 37.5 °F 41.0 °F 81% 30.15 in 6.2 mi SSW 27.6 mph - N/A   Overcast
11:00 PM 46 °F - 42 °F 80% 30.15 in 8 mi SSW 29.1 mph - -   Overcast
11:25 PM 46.4 °F 37.5 °F 41.0 °F 81% 30.15 in 6.2 mi SSW 27.6 mph - N/A   Overcast
11:55 PM 46.4 °F 37.4 °F 41.0 °F 81% 30.12 in 6.2 mi SSW 28.8 mph - N/A   Overcast